TimeCST,TemperatureF,Dew PointF,Humidity,Sea Level PressureIn,VisibilityMPH,Wind Direction,Wind SpeedMPH,Gust SpeedMPH,PrecipitationIn,Events,Conditions,WindDirDegrees,DateUTC
12:53 AM,43.0,39.0,86,30.23,10.0,Calm,Calm,-,N/A,,Clear,0,2013-11-03 05:53:00
1:53 AM,41.0,39.0,93,30.22,10.0,Calm,Calm,-,N/A,,Clear,0,2013-11-03 06:53:00
1:53 AM,41.0,39.0,93,30.23,10.0,Calm,Calm,-,N/A,,Clear,0,2013-11-03 07:53:00
2:53 AM,39.9,37.9,93,30.23,9.0,ENE,3.5,-,N/A,,Clear,70,2013-11-03 08:53:00
3:53 AM,42.1,39.0,89,30.22,10.0,East,3.5,-,N/A,,Clear,80,2013-11-03 09:53:00
4:53 AM,39.9,37.9,93,30.22,10.0,Calm,Calm,-,N/A,,Clear,0,2013-11-03 10:53:00
5:53 AM,39.0,37.0,93,30.25,10.0,Calm,Calm,-,N/A,,Clear,0,2013-11-03 11:53:00
6:53 AM,39.0,37.0,93,30.25,10.0,Calm,Calm,-,N/A,,Clear,0,2013-11-03 12:53:00
7:53 AM,44.1,41.0,89,30.25,10.0,East,4.6,-,N/A,,Clear,90,2013-11-03 13:53:00
8:53 AM,52.0,42.1,69,30.28,10.0,SE,8.1,-,N/A,,Clear,130,2013-11-03 14:53:00
9:53 AM,55.9,39.0,53,30.27,10.0,SE,9.2,17.3,N/A,,Clear,130,2013-11-03 15:53:00
10:53 AM,59.0,39.0,48,30.26,10.0,SSE,13.8,-,N/A,,Clear,150,2013-11-03 16:53:00
11:53 AM,60.1,39.0,46,30.22,10.0,SE,6.9,-,N/A,,Clear,140,2013-11-03 17:53:00
12:53 PM,61.0,39.9,46,30.16,10.0,ESE,6.9,17.3,N/A,,Clear,120,2013-11-03 18:53:00
1:53 PM,62.1,39.9,44,30.15,10.0,South,6.9,-,N/A,,Clear,170,2013-11-03 19:53:00
2:53 PM,62.1,39.0,43,30.14,10.0,Variable,6.9,-,N/A,,Clear,0,2013-11-03 20:53:00
3:53 PM,60.1,39.9,47,30.12,10.0,ESE,8.1,-,N/A,,Clear,110,2013-11-03 21:53:00
4:53 PM,57.0,44.1,62,30.12,10.0,SSE,3.5,-,N/A,,Clear,150,2013-11-03 22:53:00
5:53 PM,55.0,42.1,62,30.13,10.0,Calm,Calm,-,N/A,,Clear,0,2013-11-03 23:53:00
6:53 PM,52.0,43.0,71,30.14,10.0,SE,4.6,-,N/A,,Clear,130,2013-11-04 00:53:00
7:53 PM,52.0,44.1,74,30.14,10.0,SE,4.6,-,N/A,,Clear,140,2013-11-04 01:53:00
8:53 PM,53.1,43.0,69,30.14,10.0,SE,8.1,-,N/A,,Clear,140,2013-11-04 02:53:00
9:53 PM,52.0,44.1,74,30.15,10.0,SE,5.8,-,N/A,,Clear,140,2013-11-04 03:53:00
10:53 PM,51.1,44.1,77,30.14,10.0,SSE,4.6,-,N/A,,Clear,150,2013-11-04 04:53:00